sat.trackr.live / text

‹ back to catalog

QIANFAN-182

NORAD 69399 · 2026-124T

PAYLOAD ACTIVE UNKNOWN

§ Identity

Operator
Country
PRC
Launch date
2026-06-04
Launch site
TAISC
Launch vehicle
Mass (kg)
RCS (m²)

External: N2YO · Heavens-Above · Gunter

§ Orbital elements

Epoch: 2026-09-20T04:45:11.452608Z

Period
106.59 min
Inclination
89.0047°
Eccentricity
0.0001836
Mean motion
13.51028565 rev/d
Perigee alt
1,067.1 km
Apogee alt
1,069.8 km
Semi-major
7,446.6 km
B*
1.4287e-4
RAAN
352.0503°
Arg perigee
104.7594°
Mean anomaly
255.3761°
Rev number
1,485

§ Raw data

QIANFAN-1821 69399U 26124T   26263.19804922  .00000104  00000+0  14287-3 0  99942 69399  89.0047 352.0503 0001836 104.7594 255.3761 13.51028565 14855

JSON: /api/v1/satellites/69399 · /tle

For live sub-satellite position, see the globe view (requires WebGL).

§ Visibility from observer

Set your observer location to see the next 7 days of passes ≥ 10°. The values pass through the URL so the page stays shareable.

No JS? Fill the form by hand. The geolocation button needs JavaScript.